Tracking 17143 objects as of 30-June-2015
HD Live streaming from Space Station

CZ-4C DEB

Track CZ-4C DEB now!
10-day predictions
CZ-4C DEB is classified as:


NORAD ID: 38305
Int'l Code: 2010-009J
Perigee: 1,196.3 km
Apogee: 1,344.2 km
Inclination: 63.5 °
Period: 110.8 minutes
Semi major axis: 7641 km
RCS: 0.0013 m2 (small)
Launch date: March 5, 2010
Source: People's Republic of China (PRC)

Note: This is SATELLITE DEBRIS
Your satellite tracking list
Your tracking list is empty





NASA's NSSDC Master Catalog

Two Line Element Set (TLE):
1 38305U 10009J   15180.84773359 -.00000022  00000-0  18505-3 0  9997
2 38305 063.4992 275.2447 0096802 127.1702 328.2224 12.99741843252011

Source of the keplerian elements: AFSPC

N2YO: 298